Zurück zum Katalog

SL-16 DEB

AktivLEO
NORAD 22418·DEBRIS·🇷🇺 Russia

Gestartet Dec 25, 1992 von Baikonur Cosmodrome

Loading…

Nächste Überflüge (nächste 24 Stunden)

TLE

AktuellSource: Space-Track

Epoche: Sep 14, 2026, 14:23 UTC

1 22418U 92093DK  26257.59990132  .00000342  00000-0  22281-3 0  9997
2 22418  71.1238 114.1063 0125910 282.4399 106.4691 14.05475261718426

Verfolge SL-16 DEB in Echtzeit mit AllMySat

Download on the App Store